Location: Bangkok
(13.7500°N, 100.5170°E)
Time: 19:02:19
(UTC+07:00)

HST - Visible Passes

Search period start: 23 November 2014 00:00
Search period end: 03 December 2014 00:00
Orbit: 545 x 550 km, 28.5° (Epoch: 21 November)

Date Brightness Start Highest point End Pass type
(mag) Time Alt. Az. Time Alt. Az. Time Alt. Az.
23 Nov 2.7 05:22:04 14° NNW 05:22:52 15° NNW 05:25:17 10° NNE visible
24 Nov 2.9 05:15:15 13° NNW 05:15:34 13° N 05:17:30 10° NNE visible
25 Nov 3.1 05:08:22 11° N 05:08:22 11° N 05:09:42 10° NNE visible
26 Nov 3.2 05:01:24 11° N 05:01:24 11° N 05:01:55 10° N visible
30 Nov 3.5 04:33:14 10° NNE 04:33:14 10° NNE 04:33:22 10° NNE visible
01 Dec 3.5 04:26:10 11° NE 04:26:10 11° NE 04:26:31 10° NE visible
02 Dec 3.6 04:19:07 12° NE 04:19:07 12° NE 04:19:37 10° NE visible
02 Dec 1.5 05:54:55 10° NW 05:58:56 45° NNE 06:02:57 10° E visible
